Rantoul, IL

6:13 PM CDT on April 25, 2018 (GMT -0500)
Rantoul

Weather History for KTIP - November, 2012

Change the Weather History Date:

Thursday, November 29, 2012

  Actual Average (KCMI) Record (KCMI)
Temperature  
Mean Temperature 40 °F -  
Max Temperature 54 °F 44 °F 68 °F (1998)
Min Temperature 27 °F 29 °F 15 °F (2013)
Degree Days  
Heating Degree Days 24    
Moisture  
Dew Point 31 °F    
Average Humidity 71    
Maximum Humidity 90    
Minimum Humidity 47    
Precipitation  
Precipitation 0.00 in - - ()
Sea Level Pressure  
Sea Level Pressure 30.21 in    
Wind  
Wind Speed 8 mph (SSE)    
Max Wind Speed 18 mph    
Max Gust Speed 22 mph    
Visibility 10 miles    
Events      
Averages and records for this station are not official NWS values.
T = Trace of Precipitation, MM = Missing Value Source: NWS Daily Summary

Daily Weather History Graph

Daily Weather History Graph

Search for Another Location

Airport or City:

Astronomy

Nov. 29, 2012 Rise Set
Actual Time 6:54 AM CST 4:27 PM CST
Civil Twilight 6:24 AM CST 4:57 PM CST
Nautical Twilight 5:50 AM CST 5:31 PM CST
Astronomical Twilight 5:18 AM CST 6:03 PM CST
Moon 5:30 PM CST (11/29) 7:41 AM CST (11/29)
Length of Visible Light 10h 33m
Length of Day
9h 32m
Full, 99% of the Moon is Illuminated
Nov 29
Full
Dec 6
Last Quarter
Dec 13
New
Dec 19
First Quarter
Dec 28
Full

Hourly Weather History & Observations

Time (CST) Temp. Windchill Dew Point Humidity Pressure Visibility Wind Dir Wind Speed Gust Speed Precip Events Conditions
12:15 AM 30.4 °F 24.5 °F 26.1 °F 84% 30.32 in 10.0 mi South 5.8 mph - N/A   Clear
12:35 AM 30.6 °F 24.7 °F 26.4 °F 85% 30.32 in 10.0 mi SSE 5.8 mph - N/A   Clear
12:55 AM 30.2 °F 24.3 °F 26.2 °F 85% 30.31 in 10.0 mi SSE 5.8 mph - N/A   Clear
1:15 AM 30.0 °F 25.2 °F 26.2 °F 86% 30.31 in 7.0 mi South 4.6 mph - N/A   Clear
1:35 AM 30.2 °F 25.4 °F 26.4 °F 86% 30.32 in 10.0 mi South 4.6 mph - N/A   Clear
1:55 AM 32.0 °F 25.6 °F 26.4 °F 80% 30.31 in 10.0 mi South 6.9 mph - N/A   Clear
2:15 AM 33.4 °F 28.1 °F 26.6 °F 76% 30.32 in 10.0 mi South 5.8 mph - N/A   Clear
2:35 AM 33.1 °F 27.7 °F 26.2 °F 76% 30.31 in 10.0 mi South 5.8 mph - N/A   Clear
2:55 AM 32.2 °F 25.8 °F 26.4 °F 79% 30.31 in 10.0 mi South 6.9 mph - N/A   Clear
3:15 AM 32.0 °F - 26.4 °F 80% 30.32 in 10.0 mi Calm Calm - N/A   Clear
3:35 AM 32.0 °F 27.5 °F 25.9 °F 78% 30.31 in 10.0 mi SSE 4.6 mph - N/A   Clear
3:55 AM 31.1 °F 26.4 °F 25.2 °F 79% 30.31 in 10.0 mi SSE 4.6 mph - N/A   Clear
4:15 AM 28.8 °F 21.7 °F 24.6 °F 84% 30.30 in 10.0 mi SSE 6.9 mph - N/A   Clear
4:35 AM 28.4 °F 20.4 °F 24.8 °F 86% 30.30 in 10.0 mi South 8.1 mph - N/A   Clear
4:55 AM 29.8 °F 24.9 °F 25.5 °F 84% 30.30 in 10.0 mi SSE 4.6 mph - N/A   Clear
5:15 AM 28.9 °F 22.8 °F 24.8 °F 84% 30.30 in 10.0 mi SSE 5.8 mph - N/A   Clear
5:35 AM 28.8 °F 21.7 °F 24.8 °F 85% 30.30 in 10.0 mi SSE 6.9 mph - N/A   Clear
5:55 AM 28.4 °F 22.2 °F 24.8 °F 86% 30.30 in 10.0 mi SE 5.8 mph - N/A   Clear
6:15 AM 27.5 °F 21.1 °F 24.8 °F 90% 30.30 in 7.0 mi SE 5.8 mph - N/A   Clear
6:35 AM 27.7 °F 20.4 °F 24.4 °F 88% 30.29 in 7.0 mi SSE 6.9 mph - N/A   Clear
6:55 AM 27.1 °F 19.7 °F 24.3 °F 89% 30.29 in 7.0 mi South 6.9 mph - N/A   Clear
7:15 AM 28.2 °F 21.0 °F 25.3 °F 89% 30.29 in 7.0 mi SSE 6.9 mph - N/A   Clear
7:35 AM 29.8 °F 22.2 °F 26.4 °F 87% 30.28 in 7.0 mi SSE 8.1 mph - N/A   Clear
7:55 AM 31.5 °F 24.2 °F 27.5 °F 85% 30.28 in 7.0 mi SSE 8.1 mph - N/A   Clear
8:15 AM 32.7 °F 25.0 °F 29.1 °F 87% 30.28 in 7.0 mi South 9.2 mph - N/A   Clear
8:35 AM 35.6 °F 28.6 °F 31.1 °F 84% 30.28 in 7.0 mi South 9.2 mph - N/A   Clear
8:55 AM 39.4 °F 32.7 °F 31.8 °F 74% 30.27 in 10.0 mi South 10.4 mph - N/A   Clear
9:15 AM 41.0 °F 34.3 °F 32.0 °F 70% 30.27 in 10.0 mi South 11.5 mph 18.4 mph N/A   Clear
9:35 AM 42.8 °F 35.4 °F 32.0 °F 66% 30.27 in 10.0 mi South 15.0 mph 19.6 mph N/A   Clear
9:55 AM 44.2 °F 37.6 °F 32.4 °F 63% 30.26 in 10.0 mi South 13.8 mph 19.6 mph N/A   Clear
10:15 AM 45.5 °F 39.6 °F 32.7 °F 61% 30.26 in 10.0 mi South 12.7 mph 19.6 mph N/A   Clear
10:35 AM 46.9 °F - 32.9 °F 58% 30.24 in 10.0 mi SSW 12.7 mph - N/A   Clear
10:55 AM 48.0 °F - 32.9 °F 56% 30.23 in 10.0 mi South 13.8 mph - N/A   Clear
11:15 AM 49.3 °F - 33.1 °F 54% 30.22 in 10.0 mi SSW 13.8 mph 19.6 mph N/A   Clear
11:35 AM 50.7 °F - 33.8 °F 52% 30.21 in 10.0 mi South 12.7 mph 19.6 mph N/A   Clear
11:55 AM 51.6 °F - 33.6 °F 50% 30.20 in 10.0 mi South 16.1 mph - N/A   Clear
12:15 PM 52.0 °F - 33.8 °F 50% 30.19 in 10.0 mi SSW 15.0 mph 19.6 mph N/A   Clear
12:35 PM 52.3 °F - 33.8 °F 49% 30.18 in 10.0 mi South 13.8 mph - N/A   Clear
12:55 PM 53.2 °F - 33.8 °F 48% 30.17 in 10.0 mi South 18.4 mph - N/A   Clear
1:15 PM 52.9 °F - 34.0 °F 49% 30.17 in 10.0 mi South 13.8 mph 21.9 mph N/A   Clear
1:35 PM 52.9 °F - 34.0 °F 49% 30.16 in 10.0 mi South 12.7 mph - N/A   Clear
1:55 PM 53.4 °F - 34.5 °F 49% 30.16 in 10.0 mi South 12.7 mph - N/A   Clear
2:15 PM 54.0 °F - 34.3 °F 47% 30.15 in 10.0 mi South 17.3 mph - N/A   Clear
2:35 PM 53.6 °F - 34.7 °F 49% 30.14 in 10.0 mi South 16.1 mph - N/A   Clear
2:55 PM 52.9 °F - 34.9 °F 50% 30.14 in 10.0 mi South 13.8 mph - N/A   Clear
3:15 PM 52.0 °F - 34.7 °F 52% 30.14 in 10.0 mi South 17.3 mph 20.7 mph N/A   Clear
3:35 PM 51.4 °F - 35.1 °F 54% 30.14 in 10.0 mi South 15.0 mph - N/A   Clear
3:55 PM 50.2 °F - 34.9 °F 56% 30.13 in 10.0 mi South 17.3 mph - N/A   Clear
4:15 PM 48.6 °F - 34.9 °F 59% 30.13 in 10.0 mi South 13.8 mph - N/A   Clear
4:35 PM 47.3 °F - 34.5 °F 61% 30.12 in 10.0 mi South 11.5 mph - N/A   Clear
4:55 PM 46.4 °F 41.9 °F 34.7 °F 64% 30.12 in 10.0 mi SSE 9.2 mph - N/A   Clear
5:15 PM 45.5 °F 40.3 °F 34.7 °F 66% 30.11 in 10.0 mi SSE 10.4 mph - N/A   Clear
5:35 PM 45.0 °F 41.2 °F 34.7 °F 67% 30.12 in 10.0 mi SSE 6.9 mph - N/A   Clear
5:55 PM 44.8 °F 39.9 °F 34.7 °F 68% 30.12 in 10.0 mi SSE 9.2 mph - N/A   Clear
6:15 PM 43.7 °F 39.7 °F 34.7 °F 71% 30.12 in 10.0 mi SE 6.9 mph - N/A   Clear
6:35 PM 43.0 °F 38.8 °F 34.3 °F 72% 30.12 in 10.0 mi SSE 6.9 mph - N/A   Clear
6:55 PM 42.8 °F 38.6 °F 34.0 °F 71% 30.12 in 10.0 mi SSE 6.9 mph - N/A   Clear
7:15 PM 42.4 °F 37.5 °F 33.8 °F 71% 30.12 in 10.0 mi SSE 8.1 mph - N/A   Clear
7:35 PM 42.1 °F 37.7 °F 33.8 °F 72% 30.12 in 10.0 mi SSE 6.9 mph - N/A   Clear
7:55 PM 41.2 °F 38.2 °F 33.8 °F 75% 30.12 in 10.0 mi SSE 4.6 mph - N/A   Clear
8:15 PM 40.3 °F 35.5 °F 33.3 °F 76% 30.12 in 10.0 mi SE 6.9 mph - N/A   Clear
8:35 PM 40.1 °F 38.0 °F 33.1 °F 76% 30.12 in 10.0 mi SE 3.5 mph - N/A   Clear
8:55 PM 38.8 °F 36.5 °F 32.9 °F 79% 30.13 in 10.0 mi ESE 3.5 mph - N/A   Clear
9:15 PM 39.6 °F 36.3 °F 32.4 °F 75% 30.13 in 10.0 mi SE 4.6 mph - N/A   Clear
9:35 PM 40.8 °F 36.9 °F 32.5 °F 72% 30.13 in 10.0 mi SSE 5.8 mph - N/A   Clear
9:55 PM 40.1 °F 36.1 °F 32.2 °F 73% 30.13 in 10.0 mi SSE 5.8 mph - N/A   Clear
10:15 PM 39.7 °F 34.3 °F 32.4 °F 75% 30.12 in 10.0 mi South 8.1 mph - N/A   Clear
10:35 PM 39.4 °F 34.5 °F 32.2 °F 75% 30.12 in 10.0 mi South 6.9 mph - N/A   Clear
10:55 PM 39.9 °F 35.1 °F 32.0 °F 73% 30.12 in 10.0 mi South 6.9 mph - N/A   Clear
11:15 PM 39.2 °F 33.6 °F 32.0 °F 75% 30.13 in 10.0 mi South 8.1 mph - N/A   Clear
11:35 PM 39.6 °F 34.0 °F 32.0 °F 74% 30.12 in 10.0 mi SSE 8.1 mph - N/A   Clear
11:55 PM 38.3 °F 33.2 °F 32.0 °F 78% 30.12 in 10.0 mi South 6.9 mph - N/A   Clear